• en Suisse
  • Liste des pays
  • À 7 jours
  • Température de l'eau
  • Carte satellitaire
  • Carte météo
  • Widgets météo
  • user-avatar
    Se connecter

    Météo par heure à Middlesbrough

    Ce jour, 19 Février, Lundi

    Heure Température Précipitation Vent Pression Humidité
    00:00 +5°C° 0 mm 3 m/s 761 mmHg 95%
    01:00 +5°C° 0,3 mm 3 m/s 760 mmHg 95%
    02:00 +6°C° 0,3 mm 2 m/s 760 mmHg 95%
    03:00 +6°C° 0,3 mm 2 m/s 760 mmHg 95%
    04:00 +6°C° 0,3 mm 2 m/s 760 mmHg 95%
    05:00 +7°C° 0,3 mm 2 m/s 759 mmHg 95%
    06:00 +7°C° 0,3 mm 2 m/s 759 mmHg 95%
    07:00 +7°C° 0,2 mm 2 m/s 759 mmHg 95%
    08:00 +8°C° 0,2 mm 2 m/s 759 mmHg 95%
    09:00 +8°C° 0,2 mm 2 m/s 759 mmHg 95%
    10:00 +8°C° 0,2 mm 2 m/s 760 mmHg 94%
    11:00 +9°C° 0,2 mm 2 m/s 760 mmHg 93%
    12:00 +9°C° 0,2 mm 3 m/s 760 mmHg 91%
    13:00 +9°C° 0,1 mm 3 m/s 760 mmHg 92%
    14:00 +9°C° 0,1 mm 3 m/s 760 mmHg 92%
    15:00 +9°C° 0,1 mm 2 m/s 760 mmHg 92%
    16:00 +9°C° 0,1 mm 2 m/s 760 mmHg 93%
    17:00 +9°C° 0,1 mm 2 m/s 761 mmHg 93%
    18:00 +9°C° 0,1 mm 2 m/s 761 mmHg 94%
    19:00 +8°C° 0,1 mm 2 m/s 761 mmHg 94%
    20:00 +8°C° 0,1 mm 2 m/s 761 mmHg 94%
    21:00 +8°C° 0,1 mm 2 m/s 761 mmHg 94%
    22:00 +8°C° 0,1 mm 2 m/s 761 mmHg 94%
    23:00 +7°C° 0,1 mm 2 m/s 762 mmHg 94%

    Demain, 20 Février, Mardi

    Heure Température Précipitation Vent Pression Humidité
    00:00 +7°C° 0,1 mm 2 m/s 762 mmHg 94%
    01:00 +7°C° 0,1 mm 3 m/s 762 mmHg 92%
    02:00 +6°C° 0,1 mm 4 m/s 762 mmHg 90%
    03:00 +6°C° 0,1 mm 5 m/s 762 mmHg 87%
    04:00 +5°C° 0,1 mm 6 m/s 762 mmHg 85%
    05:00 +4°C° 0,1 mm 7 m/s 763 mmHg 84%
    06:00 +3°C° 0,1 mm 7 m/s 763 mmHg 82%
    07:00 +2°C° 0 mm 8 m/s 764 mmHg 80%
    08:00 +4°C° 0 mm 8 m/s 764 mmHg 79%
    09:00 +4°C° 0 mm 8 m/s 765 mmHg 78%
    10:00 +3°C° 0 mm 9 m/s 765 mmHg 74%
    11:00 +5°C° 0 mm 9 m/s 766 mmHg 71%
    12:00 +6°C° 0 mm 9 m/s 766 mmHg 67%
    13:00 +6°C° 0 mm 9 m/s 766 mmHg 67%
    14:00 +6°C° 0 mm 9 m/s 767 mmHg 68%
    15:00 +6°C° 0 mm 8 m/s 767 mmHg 68%
    16:00 +5°C° 0 mm 8 m/s 767 mmHg 72%
    17:00 +5°C° 0 mm 7 m/s 768 mmHg 75%
    18:00 +4°C° 0 mm 6 m/s 768 mmHg 79%
    19:00 +4°C° 0 mm 6 m/s 769 mmHg 81%
    20:00 +5°C° 0 mm 5 m/s 770 mmHg 83%
    21:00 +3°C° 0 mm 5 m/s 770 mmHg 85%
    22:00 +3°C° 0 mm 5 m/s 770 mmHg 86%
    23:00 +4°C° 0 mm 4 m/s 770 mmHg 88%

    Après-demain, 21 Février, Mercredi

    Heure Température Précipitation Vent Pression Humidité
    00:00 +4°C° 0 mm 4 m/s 771 mmHg 89%
    01:00 +3°C° 0 mm 4 m/s 771 mmHg 90%
    02:00 +3°C° 0 mm 4 m/s 771 mmHg 91%
    03:00 +3°C° 0 mm 4 m/s 771 mmHg 92%
    04:00 +3°C° 0 mm 4 m/s 771 mmHg 92%
    05:00 +1°C° 0 mm 4 m/s 771 mmHg 93%
    06:00 +1°C° 0 mm 4 m/s 771 mmHg 93%
    07:00 +3°C° 0 mm 4 m/s 771 mmHg 92%
    08:00 +3°C° 0 mm 4 m/s 771 mmHg 91%
    09:00 +4°C° 0 mm 4 m/s 771 mmHg 89%
    10:00 +5°C° 0 mm 4 m/s 771 mmHg 85%
    11:00 +5°C° 0 mm 4 m/s 771 mmHg 81%
    12:00 +6°C° 0 mm 4 m/s 771 mmHg 77%
    13:00 +6°C° 0 mm 4 m/s 770 mmHg 75%
    14:00 +6°C° 0 mm 4 m/s 770 mmHg 74%
    15:00 +6°C° 0 mm 4 m/s 770 mmHg 72%
    16:00 +5°C° 0 mm 3 m/s 770 mmHg 78%
    17:00 +4°C° 0 mm 3 m/s 770 mmHg 83%
    18:00 +3°C° 0 mm 3 m/s 770 mmHg 89%
    19:00 +3°C° 0 mm 3 m/s 770 mmHg 90%
    20:00 +4°C° 0 mm 2 m/s 770 mmHg 92%
    21:00 +3°C° 0 mm 2 m/s 770 mmHg 93%
    22:00 +3°C° 0 mm 2 m/s 770 mmHg 93%
    23:00 +3°C° 0 mm 2 m/s 770 mmHg 93%

    22 Février, Jeudi

    Heure Température Précipitation Vent Pression Humidité
    00:00 +3°C° 0 mm 2 m/s 770 mmHg 92%
    01:00 +3°C° 0 mm 2 m/s 769 mmHg 92%
    02:00 +2°C° 0 mm 2 m/s 769 mmHg 92%
    03:00 +2°C° 0 mm 2 m/s 769 mmHg 92%
    04:00 +2°C° 0 mm 2 m/s 769 mmHg 92%
    05:00 +2°C° 0 mm 2 m/s 769 mmHg 91%
    06:00 +2°C° 0 mm 2 m/s 769 mmHg 91%
    07:00 +2°C° 0 mm 2 m/s 769 mmHg 89%
    08:00 +3°C° 0 mm 2 m/s 769 mmHg 86%
    09:00 +4°C° 0 mm 2 m/s 769 mmHg 84%
    10:00 +5°C° 0 mm 2 m/s 769 mmHg 78%
    11:00 +5°C° 0 mm 3 m/s 769 mmHg 71%
    12:00 +5°C° 0 mm 3 m/s 769 mmHg 65%
    13:00 +5°C° 0 mm 3 m/s 768 mmHg 65%
    14:00 +7°C° 0 mm 3 m/s 768 mmHg 64%
    15:00 +7°C° 0 mm 3 m/s 768 mmHg 63%
    16:00 +4°C° 0 mm 3 m/s 768 mmHg 69%
    17:00 +3°C° 0 mm 3 m/s 768 mmHg 75%
    18:00 +2°C° 0 mm 3 m/s 768 mmHg 80%
    19:00 +2°C° 0 mm 3 m/s 768 mmHg 83%
    20:00 +1°C° 0 mm 3 m/s 769 mmHg 86%
    21:00 +1°C° 0 mm 3 m/s 769 mmHg 89%
    22:00 +2°C° 0 mm 2 m/s 769 mmHg 90%
    23:00 +1°C° 0 mm 2 m/s 769 mmHg 91%

    23 Février, Vendredi

    Heure Température Précipitation Vent Pression Humidité
    00:00 +1°C° 0 mm 2 m/s 769 mmHg 92%
    01:00 +1°C° 0 mm 2 m/s 769 mmHg 92%
    02:00 +1°C° 0 mm 2 m/s 769 mmHg 92%
    03:00 +1°C° 0 mm 2 m/s 769 mmHg 92%
    04:00 +2°C° 0 mm 1 m/s 769 mmHg 92%
    05:00 +2°C° 0 mm 1 m/s 769 mmHg 92%
    06:00 +2°C° 0 mm 1 m/s 769 mmHg 91%
    07:00 +2°C° 0 mm 2 m/s 769 mmHg 87%
    08:00 +2°C° 0 mm 2 m/s 769 mmHg 83%
    09:00 +3°C° 0 mm 2 m/s 769 mmHg 79%
    10:00 +3°C° 0 mm 3 m/s 769 mmHg 73%
    11:00 +4°C° 0 mm 3 m/s 769 mmHg 68%
    12:00 +4°C° 0 mm 4 m/s 769 mmHg 62%
    13:00 +4°C° 0 mm 4 m/s 769 mmHg 63%
    14:00 +4°C° 0 mm 4 m/s 769 mmHg 64%
    15:00 +4°C° 0 mm 4 m/s 769 mmHg 65%
    16:00 +3°C° 0 mm 4 m/s 769 mmHg 70%
    17:00 +1°C° 0 mm 4 m/s 769 mmHg 75%
    18:00 0°C° 0 mm 4 m/s 769 mmHg 80%
    19:00 0°C° 0 mm 4 m/s 770 mmHg 79%
    20:00 0°C° 0 mm 5 m/s 770 mmHg 79%
    21:00 0°C° 0 mm 5 m/s 771 mmHg 78%
    22:00 0°C° 0 mm 5 m/s 771 mmHg 77%
    23:00 0°C° 0 mm 5 m/s 771 mmHg 77%

    24 Février, Samedi

    Heure Température Précipitation Vent Pression Humidité
    00:00 0°C° 0 mm 5 m/s 771 mmHg 76%
    01:00 0°C° 0 mm 5 m/s 771 mmHg 76%
    02:00 0°C° 0 mm 5 m/s 771 mmHg 77%
    03:00 0°C° 0 mm 5 m/s 771 mmHg 77%
    04:00 -1°C° 0 mm 4 m/s 771 mmHg 78%
    05:00 -1°C° 0 mm 4 m/s 772 mmHg 80%
    06:00 -1°C° 0 mm 4 m/s 772 mmHg 81%
    07:00 -1°C° 0 mm 5 m/s 772 mmHg 77%
    08:00 0°C° 0 mm 5 m/s 772 mmHg 74%
    09:00 +1°C° 0 mm 6 m/s 773 mmHg 70%
    10:00 +1°C° 0 mm 6 m/s 773 mmHg 67%
    11:00 +2°C° 0 mm 6 m/s 773 mmHg 64%
    12:00 +3°C° 0 mm 7 m/s 773 mmHg 61%
    13:00 +2°C° 0 mm 7 m/s 773 mmHg 62%
    14:00 +2°C° 0 mm 7 m/s 773 mmHg 63%
    15:00 +2°C° 0 mm 7 m/s 773 mmHg 63%
    16:00 +1°C° 0 mm 6 m/s 774 mmHg 68%
    17:00 -1°C° 0 mm 6 m/s 774 mmHg 73%
    18:00 -1°C° 0 mm 5 m/s 775 mmHg 78%
    19:00 -2°C° 0 mm 6 m/s 775 mmHg 78%
    20:00 -2°C° 0 mm 6 m/s 775 mmHg 78%
    21:00 -1°C° 0 mm 6 m/s 776 mmHg 79%
    22:00 -1°C° 0 mm 6 m/s 776 mmHg 78%
    23:00 -1°C° 0 mm 6 m/s 776 mmHg 77%
    Voir plus